Regional Weather Roundup
Issued by NWS

Home | Current Version | Previous Version | Graphics & Text | Print | Product List | Glossary On
Versions: 1 2 3 4 5 6 7 8 9 10 11 12 13 14 15 16 17 18 19 20 21 22 23 24 25 26 27 28 29 30 31 32 33 34 35 36 37 38 39 40 41 42 43 44 45 46 47 48 49 50
000
ASUS43 KDMX 310907
RWRIA

WEATHER ROUNDUP FOR IOWA
NATIONAL WEATHER SERVICE DES MOINES IA
400 AM CDT SUN AUG 31 2014

NOTE: "FAIR" INDICATES FEW OR NO CLOUDS BELOW 12,000 FEET WITH NO
SIGNIFICANT WEATHER AND/OR OBSTRUCTIONS TO VISIBILITY.

* - THESE STATIONS ARE NOT NWS STATIONS...THUS NOT UNDER NWS
QUALITY CONTROL.  THEY ALSO DO NOT REPORT WEATHER SUCH
AS PRECIPITATION OR FOG.

IAZ001>003-012>014-020>022-031>034-043>046-311000-
   NORTHWEST IOWA

CITY           SKY/WX    TMP DP  RH WIND       PRES   REMARKS
CARROLL *      PTCLDY    61  61 100 CALM      29.86S FOG
CHEROKEE *     MOCLDY    64  64 100 S6        29.82F
DENISON *      MOCLDY    68  66  94 S8        29.82F
LE MARS *        N/A     64  63  94 S7        29.79F
ORANGE CITY *  PTCLDY    66  61  82 SE8       29.80F
SHELDON *      MOCLDY    64  63  94 SE14      29.79F
SIOUX CITY     CLEAR     65  63  93 SE7       29.78F
SPENCER        PTCLDY    63  59  87 SE9       29.83F
STORM LAKE *   MOCLDY    63  63 100 SE9       29.84F
$$

IAZ055>058-069>071-079>083-090>094-311000-
   SOUTHWEST IOWA

CITY           SKY/WX    TMP DP  RH WIND       PRES   REMARKS
ATLANTIC *     CLEAR     66  64  94 CALM      29.85F
AUDUBON *      CLEAR     64  63  94 CALM      29.87F
CLARINDA *     CLEAR     64  64 100 CALM      29.88S
COUNCIL BLFS * CLEAR     66  66 100 SE9       29.83S
CRESTON *      CLEAR     68  66  94 S6        29.89S
HARLAN  *      CLEAR     64  64 100 CALM      29.88F
LAMONI         CLEAR     68  65  90 S7        29.89F
RED OAK *      CLEAR     68  64  88 S5        29.86R
SHENANDOAH *   CLEAR     68  66  94 SE6       29.86S
$$

IAZ047>049-059>061-072>074-084-311000-
   CENTRAL IOWA

CITY           SKY/WX    TMP DP  RH WIND       PRES   REMARKS
AMES           FOG       60  60 100 CALM      29.88F VSB 1/2
ANKENY *       CLEAR     61  61 100 CALM      29.88S FOG
CHARITON *     CLEAR     64  64 100 S5        29.89F
DES MOINES     PTCLDY    69  64  84 SE7       29.87S
GRINNELL*      FOG       63  63 100 E5        29.91S VSB 1/2
KNOXVILLE *    CLEAR     66  64  94 SE6       29.88F
MARSHALLTOWN   CLEAR     60  59  96 E3        29.89F
PELLA *        FOG       64  63  94 CALM      29.91S VSB 1/4
PERRY *          N/A     61  61 100 SE5       29.87S FOG
$$

IAZ004>006-015-016-023>025-035-036-311000-
   NORTH CENTRAL IOWA

CITY           SKY/WX    TMP DP  RH WIND       PRES   REMARKS
ALGONA *       CLEAR     63  63 100 SE8       29.86F
CLARION *      CLEAR     63  63 100 SE8       29.88F
ESTHERVILLE    CLEAR     59  58  96 S7        29.84F
FORT DODGE *   CLEAR     61  59  94 SE5       29.87F
MASON CITY     FOG       56  55  97 S5        29.90F VSB 1/4
FOREST CITY *  CLEAR     55  55 100 SE3       29.88F FOG
IOWA FALLS *   FOG       59  59 100 SE5       29.91S VSB 1/2
$$

IAZ007>011-017>019-026>030-037>042-050>054-066-311000-
   NORTHEAST IOWA

CITY           SKY/WX    TMP DP  RH WIND       PRES   REMARKS
CEDAR RAPIDS   FOG       63  63 100 CALM      29.90F VSB 1/2
CHARLES CITY * CLEAR     61  61 100 SE6       29.91F FOG
CLINTON *        N/A     63  61  94 CALM      29.94S VSB<1/4
DECORAH *      FOG       63  63 100 CALM      29.91S VSB 0
DUBUQUE        PTCLDY    62  61  96 CALM      29.93S FOG
MONTICELLO *   PTCLDY    63  63 100 CALM      29.91S
OELWEIN *      PTCLDY    61  61 100 CALM      29.92S
WATERLOO       CLEAR     59  58  96 CALM      29.89F
$$

IAZ064-065-067-068-078-311000-
   EAST CENTRAL IOWA

CITY           SKY/WX    TMP DP  RH WIND       PRES   REMARKS
DAVENPORT      FOG       60  59  96 CALM      29.92S VSB 1/4
IOWA CITY      CLEAR     62  62 100 CALM      29.91S FOG
MT. PLEASANT * CLEAR     64  63  94 CALM      29.91S FOG
MUSCATINE *    FOG       64  63  94 CALM      29.91S VSB 1/4
QUAD CITIES    FOG       62  61  96 CALM      29.91R VSB 1/2
$$

IAZ062-063-075>077-085>089-095>099-311000-
   SOUTHEAST IOWA

CITY           SKY/WX    TMP DP  RH WIND       PRES   REMARKS
BURLINGTON     FOG       66  66 100 CALM      29.91S VSB 1/4
FAIRFIELD *    CLEAR     66  64  94 S6        29.90F
KEOKUK *       FOG       68  68 100 CALM      29.90S VSB 1/2
OSKALOOSA *      N/A     61  61 100 CALM      29.91R FOG
CENTERVILLE *  CLEAR     64  64 100 SE5       29.92S
OTTUMWA        CLEAR     67  65  93 S5        29.90S
WASHINGTON *   CLEAR     63  63 100 CALM      29.91S FOG
$$

ABBREVIATIONS USED IN REMARKS
   TC - TEMPERATURES IN CELSIUS
  WCI - WIND CHILL INDEX
   HX - HEAT INDEX
  VSB - VISIBILITY
$$



USA.gov is the U.S. government's official web portal to all federal, state and local government web resources and services.